Weather Roundup
Issued by NWS

Home | Current Version | Previous Version | Graphics & Text | Print | Product List | Glossary Off
Versions: 1 2 3 4 5 6 7 8 9 10 11 12 13 14 15 16 17 18 19 20 21 22 23 24 25 26 27 28 29 30 31 32 33 34 35 36 37 38 39 40 41 42 43 44 45 46 47 48 49 50

000
NZUS93 KARX 240710
HRRWXR

CURRENT HOURLY OBSERVATIONS ACROSS
MUCH OF THE UPPER MISSISSIPPI VALLEY
NATIONAL WEATHER SERVICE LA CROSSE WI
200 AM CDT TUE OCT 24 2017


...SOUTHEAST MINNESOTA...


CITY           SKY/WX    TMP DP  RH WIND       PRES   REMARKS
ROCHESTER      CLOUDY    42  31  64 NW22G29   29.76S
ROCHESTER/MAYO CLOUDY    44  29  56 NW15G29   29.76S
WINONA         CLOUDY    48  36  61 NW16G22   29.72F
AUSTIN         CLOUDY    41  30  65 NW17G26   29.79S
ALBERT LEA     NOT AVBL
DODGE CENTER   CLOUDY    41  30  65 NW18G29   29.78F
PRESTON        CLOUDY    43  29  58 NW20G25   29.73F
OWATONNA       MOCLDY    41  30  65 NW20G25   29.83S
FARIBAULT      PTCLDY    41  30  65 NW15G21   29.83F
$$

...ELSEWHERE IN MINNESOTA...


CITY           SKY/WX    TMP DP  RH WIND       PRES   REMARKS
MINNEAPOLIS    CLOUDY    42  31  64 NW17G29   29.83S
INTNL FALLS    CLOUDY    38  29  70 N18G26    29.96S WCI  28
DULUTH         CLOUDY    40  35  83 N23G36    29.75F WCI  30
RED WING       CLOUDY    46  28  49 NW12G23   29.77S
REDWOOD FALLS  CLOUDY    39  27  62 NW17G28   29.97R WCI  30
MANKATO        NOT AVBL
WORTHINGTON    PTCLDY    38  30  73 NW24      29.99F WCI  27
FAIRMONT       CLOUDY    42  31  64 N31       29.90S
$$

...SOUTHWEST WISCONSIN...


CITY           SKY/WX    TMP DP  RH WIND       PRES   REMARKS
LA CROSSE      CLOUDY    48  40  73 NW16G29   29.67F
PRAIRIE DU CHI LGT RAIN  47  35  63 NW12G23   29.68F
BOSCOBEL       LGT RAIN  47  42  83 W6        29.66F
LONE ROCK      LGT RAIN  47  44  90 NW17G26   29.62F
PLATTEVILLE    CLOUDY    46  44  94 NW12      29.64F
FORT MC COY    LGT RAIN  43  42  95 NW13      29.66S
CAMP DOUGLAS   LGT RAIN  45  44  97 NW15G22   29.60F
MAUSTON-NEW LI LGT RAIN  46  44  93 NW15G23   29.59F
VIROQUA        CLOUDY    43  43  99 NW13G21   29.65F
WIS DELLS      RAIN      45  43  93 NW14G23   29.57F
$$

...ELSEWHERE IN WISCONSIN...


CITY           SKY/WX    TMP DP  RH WIND       PRES   REMARKS
MILWAUKEE      LGT RAIN  51  49  92 W8        29.50F
MADISON        RAIN      47  45  93 NW10G18   29.55F FOG
GREEN BAY      CLOUDY    50  46  86 NW8       29.47F
EAU CLAIRE     CLOUDY    45  34  65 NW22G30   29.70F
BLACK RVR FLS  DRIZZLE   45  42  89 NW8G17    29.65F
MEDFORD        DRIZZLE   41  38  89 NW20G25   29.60F
WAUSAU         LGT RAIN  45  42  89 NW12G23   29.55F
WIS RAPIDS     LGT RAIN  47  44  90 N15G23    29.58S
MARSHFIELD     LGT RAIN  44  40  85 NW15G26   29.59F
RICE LAKE      CLOUDY    44  33  66 NW13G22   29.74F
$$

...NORTHEAST IOWA...


CITY           SKY/WX    TMP DP  RH WIND       PRES   REMARKS
WATERLOO       CLOUDY    46  28  49 NW20G31   29.75F
DUBUQUE        CLOUDY    46  37  71 NW16G26   29.66F
DECORAH        CLOUDY    45  34  65 NW14G22   29.70S
MASON CITY     CLEAR     41  28  60 NW23G33   29.83F
CHARLES CITY   CLOUDY    45  28  53 NW17G31   29.77F
OELWEIN        CLOUDY    46  32  57 NW17G26   29.73F
$$

...ELSEWHERE IN IOWA...


CITY           SKY/WX    TMP DP  RH WIND       PRES   REMARKS
DES MOINES     PTCLDY    47  34  60 NW20G26   29.87F
IOWA CITY      LGT RAIN  51  34  52 NW16G28   29.74F
FORT DODGE     CLOUDY    47  31  53 N18G30    29.89F
MARSHALLTOWN   LGT RAIN  46  32  58 NW23G31   29.81S
CEDAR RAPIDS   CLOUDY    48  34  58 NW18      29.72F
$$

...NORTHERN ILLINOIS...


CITY           SKY/WX    TMP DP  RH WIND       PRES   REMARKS
CHICAGO-OHARE  LGT RAIN  49  46  90 W12       29.56F
CHICAGO-MIDWAY LGT RAIN  50  48  93 W9        29.56F FOG
MOLINE         CLOUDY    50  33  52 NW20G28   29.68F
ROCKFORD       LGT RAIN  47  44  90 W9        29.60F
PEORIA         CLOUDY    49  38  65 W9G21     29.69F
$$

NOTE: "FAIR" INDICATES FEW OR NO CLOUDS BELOW 12,000 FEET WITH NO
SIGNIFICANT WEATHER AND/OR OBSTRUCTIONS TO VISIBILITY. WIND
SPEEDS ARE IN MILES-PER-HOUR.




USA.gov is the U.S. government's official web portal to all federal, state and local government web resources and services.